Terminal Aerodrome Forecast
Issued by NWS

Home | Current Version | Previous Version | Text Only | Print | Product List | Glossary On
Versions: 1 2 3 4 5 6 7 8 9 10 11 12 13 14 15 16 17 18 19 20 21 22 23 24 25 26 27 28 29 30 31 32 33 34 35 36 37 38 39
000
FTPA31 PHFO 130500
TAFLNY
TAF
PHNY 130530Z 1306/1406 04012KT P6SM SCT020 BKN035
     FM130900 04008KT P6SM SCT020 BKN250
     FM131800 04015KT P6SM SCT022 BKN035
      AMD NOT SKED=

USA.gov is the U.S. government's official web portal to all federal, state and local government web resources and services.